Regional Weather Roundup
Issued by NWS Upton, NY

Home | Current Version | Previous Version | Text Only | Print | Product List | Glossary On
Versions: 1 2 3 4 5 6 7 8 9 10 11 12 13 14 15 16 17 18 19 20 21 22 23 24 25 26 27
000
ASUS41 KOKX 280605
RWROKX

REGIONAL WEATHER ROUNDUP
NATIONAL WEATHER SERVICE NEW YORK NY
200 AM EDT SAT MAY 28 2016

NOTE: "FAIR" INDICATES FEW OR NO CLOUDS BELOW 12,000 FEET WITH NO
SIGNIFICANT WEATHER AND/OR OBSTRUCTIONS TO VISIBILITY.

NYZ071-072-176-178-NJZ106-104-280700-
NEW YORK CITY METRO AREA


CITY           SKY/WX    TMP DP  RH WIND       PRES   REMARKS
CENTRAL PARK   CLEAR     75  61  61 VRB5      30.11R
LAGUARDIA APRT PTCLDY    75  66  73 SW10G18   30.07S
KENNEDY INTL   PTCLDY    65  58  78 S7        30.10S
NEWARK/LIBERTY PTCLDY    73  63  70 S7        30.08R
BRNX BOT. GARD   N/A     73  63  68 SE3       30.08F
TETERBORO      CLEAR     74  62  66 S7        30.06S
$$

NYZ177-179-078>081-280700-
LONG ISLAND NEW YORK

CITY           SKY/WX    TMP DP  RH WIND       PRES   REMARKS
FARMINGDALE    CLEAR     67  56  67 SW8       30.10S
ISLIP          CLEAR     67  57  70 SW10      30.09S
SHIRLEY        CLEAR     69  58  67 SW13G28   30.10F
RIVERHEAD        N/A     70  59  68 SW1       30.08S
WESTHAMPTON    CLEAR     65  57  75 SW15G23   30.11S
EAST HAMPTON   FAIR      65  56  74 SW15      30.09S
MONTAUK POINT    N/A     64  58  80 SW10G21   30.11R
$$

NYZ052-065-067-280700-
HUDSON VALLEY

CITY           SKY/WX    TMP DP  RH WIND       PRES   REMARKS
WHITE PLAINS   CLEAR     68  61  78 CALM      30.08S
NEWBURGH       PTCLDY    72  68  88 CALM      30.07S
MONTGOMERY     CLEAR     67  66  97 CALM      30.06S FOG
POUGHKEEPSIE   CLEAR     68  65  90 CALM      30.04S FOG
ALBANY         PTCLDY    70  66  87 CALM      30.04R
$$

NJZ001-105-106-008-010-013-015-019>022-104-280700-
NEW JERSEY

CITY           SKY/WX    TMP DP  RH WIND       PRES   REMARKS
NEWARK/LIBERTY PTCLDY    73  63  70 S7        30.08R
TETERBORO      CLEAR     74  62  66 S7        30.06S
CALDWELL       CLEAR     76  65  68 SW3       30.07S
MORRISTOWN     PTCLDY    72  63  73 CALM      30.08S
SOMERVILLE     CLEAR     69  66  90 CALM      30.07R
SUSSEX         CLEAR     67  65  93 CALM      30.08R FOG
ANDOVER          N/A     73  67  81 S3        30.09R
TRENTON        CLEAR     71  61  70 S7        30.09S
MILLVILLE      CLEAR     69  59  70 VRB3      30.12S
ATLANTIC CITY  PTCLDY    69  59  70 S8        30.12S
WRIGHTSTOWN    CLOUDY    69  57  65 SW7       30.08S
TOMS RIVER     CLOUDY    70  54  56 SW8       30.11S
BELMAR         CLEAR     70  55  59 SW8       30.12R
$$

PAZ047>061-062-071-280700-
EASTERN PENNSYLVANIA

CITY           SKY/WX    TMP DP  RH WIND       PRES   REMARKS
PHILADELPHIA   PTCLDY    72  58  61 S8        30.10S
ALLENTOWN      CLEAR     73  65  75 SW6       30.08R
SCRANTON       PTCLDY    73  64  73 S5        30.08S
$$

CTZ002-004>006-009-010-012-RIZ004-006-007-MAZ004-011-015-280700-
SOUTHERN NEW ENGLAND
 IN CT

CITY           SKY/WX    TMP DP  RH WIND       PRES   REMARKS
BRADLEY INTL   PTCLDY    67  60  78 S8        30.04F
HARTFORD       CLEAR     69  59  70 S6        30.05F
DANBURY        CLEAR     65  62  90 CALM      30.09S
WTRBRY/OXFORD    N/A     64  59  82 CALM      30.09S
BRIDGEPORT     PTCLDY    67  59  75 SW6       30.07F
MERIDEN        CLEAR     65  59  81 S3        30.07S
NEW HAVEN      MOCLDY    66  59  78 S6        30.07F
CHESTER        FAIR      66  59  77 SW8       30.08S
GROTON         PTCLDY    61  57  87 S3        30.08S
WILLIMANTIC    CLEAR     67  58  72 CALM      30.07F

 IN RI

CITY           SKY/WX    TMP DP  RH WIND       PRES   REMARKS
PROVIDENCE     CLEAR     65  55  70 S8        30.08S
BLOCK ISLAND   TSTM      62  60  93 SW26G36   30.12S FOG
WESTERLY       MOCLDY    64  54  69 S8        30.09F

 IN MA

CITY           SKY/WX    TMP DP  RH WIND       PRES   REMARKS
BOSTON         MOCLDY    68  59  73 SW9       30.03F
WORCESTER      CLEAR     65  60  84 SW10      30.06F
WESTFIELD      CLEAR     65  62  90 CALM      30.05S
PROVINCETOWN   CLEAR     60  56  86 SW12G20   30.07F
NANTUCKET      PTCLDY    59  56  89 SW8       30.13S
$$

ANZ330-335-338-340-345-350-353-355-280700-
COASTAL MARINE OBSERVATIONS


STATION/POSITION TIME  SKY/WX   TEMP    WIND        PRES    VSBY  WAVE
                                AIR SEA DIR/SP/G                  HT/PER
                 (UTC)          (F)     (DEG/KT/KT) (MB)    (MI)  (FT/S)
NY HARB ENTRANCE 0450            63 59  210/ 17/ 19 1018.3          4/ 5
20S FIRE ISLAND  0450            62 58  220/ 17/ 19 1019.0          4/ 6
GREAT SOUTH BAY  0500            66 69  230/ 16/ 21   N/A
23 SSW MONTAUK P 0550            61 57  220/ 16/ 19 1018.7          4/ 5
15 E BARNEGAT LI 0522               59                N/A           4/ 6
HUDSON CANYON    0450            61 57              1020.7          3/ 6
KINGS POINT      0500            69 59              1018.2
EXECUTION ROCKS  NOT AVBL
CENTRAL LI SOUND 0545            64     270/  4/  6   N/A           2/ 4
EASTERN LI SOUND 0500            61 54  210/  4/  4   N/A
ROBBINS REEF     0500            71     160/  8/ 10 1017.9
$$


>>>>>>>>>>>>>>>>>>>>>>>>>>>> KEY <<<<<<<<<<<<<<<<<<<<<<<<<<<
>                                                          <
>     SKY/WX - SKY CONDITION/PRESENT WEATHER               <
>     TMP    - TEMPERATURE IN FAHRENHEIT                   <
>     DP     - DEWPOINT IN FAHRENHEIT                      <
>     RH     - RELATIVE HUMIDITY IN PERCENT                <
>     WIND   - DIRECTION AND SPEED IN MPH                  <
>     PRES   - MEAN SEA LEVEL PRESSURE IN INCHES OF HG     <
>     WCI    - WIND CHILL INDEX                            <
>     VSB    - VISIBILITY IN MILES                         <
>     HX     - HEAT INDEX                                  <
>     TC     - TEMPERATURE IN CELSIUS                      <
>     VRB    - VARIABLE WIND DIRECTION                     <
>                                                          <
>>>>>>>>>>>>>>>>>>>>>>>>>>>> KEY <<<<<<<<<<<<<<<<<<<<<<<<<<<






USA.gov is the U.S. government's official web portal to all federal, state and local government web resources and services.